Location: Newark
(21.1200°N, 73.4000°E)
Time: 10:42:20
(UTC+00:00)

Tiros 1 despin weight - Visible Passes

Search period start: 25 January 2020 00:00
Search period end: 04 February 2020 00:00
Orbit: 594 x 642 km, 48.2° (Epoch: 24 January)

Date Brightness Start Highest point End Pass type
(mag) Time Alt. Az. Time Alt. Az. Time Alt. Az.
25 Jan ? 13:19:24 10° NNW 13:23:54 47° NE 13:28:25 10° ESE visible
25 Jan ? 15:02:09 10° W 15:05:11 17° SW 15:08:13 10° SSW visible
26 Jan ? 13:35:47 10° NW 13:40:26 71° SW 13:45:06 10° SE visible
27 Jan ? 13:52:50 10° WNW 13:56:51 28° SW 14:00:51 10° S visible
28 Jan ? 14:11:40 10° WSW 14:13:11 11° SW 14:14:43 10° SW visible
31 Jan ? 01:19:16 10° S 01:22:26 19° SE 01:25:37 10° E visible
02 Feb ? 00:12:54 10° SE 00:14:09 11° SE 00:15:25 10° ESE visible
03 Feb ? 00:26:42 10° S 00:30:29 28° SE 00:34:17 10° ENE visible
